Weather Roundup
Issued by NWS Springfield, MO

Home | Current Version | Previous Version | Text Only | Print | Product List | Glossary On
Versions: 1 2 3 4 5 6 7 8 9 10 11 12 13 14 15 16 17 18 19 20 21 22 23 24 25 26 27 28 29 30 31 32 33 34 35 36 37 38 39 40 41 42 43 44 45 46 47 48 49 50
297
NZUS99 KSGF 230007
HRRSGF

HOURLY WEATHER
NATIONAL WEATHER SERVICE SPRINGFIELD MO
700 PM CDT THU JUN 22 2017

......SGF CWA......

CITY           SKY/WX    TMP DP  RH WIND       PRES   REMARKS
SPRINGFIELD    MOSUNNY   85  72  65 SE13      29.71S HX  91
6HR MIN TEMP:  79; 6HR MAX TEMP:  86;

JOPLIN         MOSUNNY   84  75  74 S9        29.68S HX  92
6HR MIN TEMP:  83; 6HR MAX TEMP:  89;

WEST PLAINS    CLOUDY    83  73  72 SE6       29.75S
6HR MIN TEMP:  76; 6HR MAX TEMP:  86; 6HR PCP: TRACE;

ROLLA          MOSUNNY   82  73  74 S8        29.73F
6HR MIN TEMP:  81; 6HR MAX TEMP:  84;

OSAGE BEACH    CLOUDY    83  74  74 SE5       29.72S
BRANSON        PTSUNNY   81  73  78 SE8       29.74R

......SURROUNDING SGF CWA......

CITY           SKY/WX    TMP DP  RH WIND       PRES   REMARKS
CHANUTE        MOSUNNY   85  72  65 S12       29.66S HX  91
PARSONS        MOSUNNY   86  72  62 S7        29.67F HX  92
COFFEYVILLE    SUNNY     85  72  65 S6        29.65F HX  91
EMPORIA        SUNNY     85  72  65 S16       29.63F HX  91
GROVE OK       SUNNY     88  72  58 S5        29.68S HX  94
ROGERS AR      MOSUNNY   85  71  63 SE6       29.71S HX  90
SILOAM SPRINGS MOSUNNY   84  70  61 CALM      29.69R
HARRISON AR    CLOUDY    77  70  79 S9        29.74R
NEAR YELLVILLE CLOUDY    75  70  83 CALM      29.70S

......KANSAS AND MISSOURI......

CITY           SKY/WX    TMP DP  RH WIND       PRES   REMARKS
KANSAS CTY INT MOSUNNY   84  72  67 S13       29.64F
DOWNTOWN KC    MOSUNNY   87  72  60 S15       29.63F HX  93
COLUMBIA       CLOUDY    83  74  74 SE8       29.72S
SEDALIA        PTSUNNY   83  76  79 S8        29.71F HX  91
ST JOSEPH      MOSUNNY   86  73  65 S10       29.64R HX  93
ST LOUIS       CLOUDY    86  70  58 S7        29.74F HX  90
SPIRIT OF STL  CLOUDY    84  74  71 SE7       29.72F HX  91
KIRKSVILLE     SUNNY     83  72  69 S9        29.69F
WICHITA        MOSUNNY   88  69  53 SE16      29.61F HX  92
TOPEKA         SUNNY     87  73  62 S12       29.62S HX  94
OLATHE         MOSUNNY   83  73  72 S10       29.66F

......TENNESSEE......

CITY           SKY/WX    TMP DP  RH WIND       PRES   REMARKS
MEMPHIS        LGT RAIN  80  77  90 SE13      29.75S
NASHVILLE      CLOUDY    79  74  84 S10       29.89S

......ARKANSAS.......

CITY           SKY/WX    TMP DP  RH WIND       PRES   REMARKS
FAYETTEVILLE   MOSUNNY   84  72  67 E6        29.69S
FT SMITH       MOSUNNY   84  71  65 E8        29.64S
LITTLE ROCK    CLOUDY    75  75 100 NE8       29.65F

......OKLAHOMA.......

CITY           SKY/WX    TMP DP  RH WIND       PRES   REMARKS
TULSA          MOSUNNY   87  73  62 SE8       29.63F HX  94
PONCA CITY     SUNNY     89  69  51 SE14      29.63S HX  93
MCALESTER      CLOUDY    89  73  59 VRB3      29.65S HX  97
OKLAHOMA CITY  MOSUNNY   89  66  46 SE12      29.65S HX  91

......IOWA............

CITY           SKY/WX    TMP DP  RH WIND       PRES   REMARKS
DES MOINES     MOSUNNY   87  69  54 SW10      29.65R HX  91
QUAD CITIES    MOSUNNY   83  70  64 VRB7      29.67R

......ILLINOIS........

CITY           SKY/WX    TMP DP  RH WIND       PRES   REMARKS
QUINCY         MOSUNNY   83  72  69 SE13      29.70F
CHICAGO        MOSUNNY   85  68  56 SW16G28   29.69F




USA.gov is the U.S. government's official web portal to all federal, state and local government web resources and services.